Chadron, NE

1:28 PM MST on February 10, 2016 (GMT -0700)
Chadron Municipal

Weather History for KCDR - October, 2013

Change the Weather History Date:

Thursday, October 3, 2013

  Actual Average Record
Temperature  
Mean Temperature 45 °F 53 °F  
Max Temperature 50 °F 70 °F 92 °F (1967)
Min Temperature 40 °F 36 °F 21 °F (2009)
Degree Days  
Heating Degree Days 20 12  
Month to date heating degree days 40 36  
Since 1 July heating degree days 130 247  
Cooling Degree Days 0 0  
Month to date cooling degree days 0 0  
Year to date cooling degree days 917 710  
Moisture  
Dew Point 43 °F    
Average Humidity 86    
Maximum Humidity 100    
Minimum Humidity 71    
Precipitation  
Precipitation 0.34 in 0.05 in 0.76 in (1986)
Month to date precipitation 0.34 0.17  
Year to date precipitation 15.39 15.77  
Sea Level Pressure  
Sea Level Pressure 29.93 in    
Wind  
Wind Speed 13 mph (NNE)    
Max Wind Speed 24 mph    
Max Gust Speed 31 mph    
Visibility 6 miles    
Events Rain    
T = Trace of Precipitation, MM = Missing Value Source: NWS Daily Summary

Daily Weather History Graph

Daily Weather History Graph

Search for Another Location

Airport or City:

Trip Planner

Search our weather history database for the weather conditions in past years. The results will help you decide how hot, cold, wet, or windy it might be!

Date:

Astronomy

Oct. 03, 2013 Rise Set
Actual Time 6:52 AM MDT 6:29 PM MDT
Civil Twilight 6:23 AM MDT 6:57 PM MDT
Nautical Twilight 5:51 AM MDT 7:30 PM MDT
Astronomical Twilight 5:18 AM MDT 8:03 PM MDT
Moon 5:26 AM MDT (10/3) 5:39 PM MDT (10/3)
Length of Visible Light 12h 33m
Length of Day
11h 37m
Waning Crescent, 2% of the Moon is Illuminated
Oct 3
Waning Crescent
Oct 4
New
Oct 11
First Quarter
Oct 18
Full
Oct 26
Last Quarter

Hourly Weather History & Observations

Time (MDT) Temp. Windchill Dew Point Humidity Pressure Visibility Wind Dir Wind Speed Gust Speed Precip Events Conditions
12:53 AM 45.0 °F 42.6 °F 39.0 °F 80% 29.92 in 10.0 mi NW 4.6 mph - N/A   Overcast
1:53 AM 48.9 °F - 39.0 °F 69% 29.91 in 10.0 mi NNW 3.5 mph - N/A   Overcast
2:53 AM 48.9 °F - 39.9 °F 71% 29.89 in 10.0 mi ENE 3.5 mph - N/A   Overcast
3:53 AM 48.9 °F - 41.0 °F 74% 29.90 in 10.0 mi NE 8.1 mph - N/A   Overcast
4:53 AM 48.9 °F - 41.0 °F 74% 29.92 in 10.0 mi North 8.1 mph - N/A   Overcast
5:53 AM 48.0 °F - 42.1 °F 80% 29.92 in 10.0 mi NNE 8.1 mph - N/A   Overcast
6:53 AM 48.0 °F - 42.1 °F 80% 29.93 in 10.0 mi NNE 10.4 mph - N/A   Overcast
7:31 AM 48.2 °F - 42.8 °F 82% 29.93 in 10.0 mi NNE 11.5 mph - N/A   Overcast
7:49 AM 48.2 °F - 42.8 °F 82% 29.93 in 10.0 mi NNE 9.2 mph - N/A   Overcast
7:53 AM 48.0 °F - 43.0 °F 83% 29.95 in 10.0 mi NNE 10.4 mph - N/A   Overcast
8:53 AM 48.9 °F - 44.1 °F 83% 29.96 in 10.0 mi NE 10.4 mph - N/A   Overcast
9:53 AM 48.9 °F - 43.0 °F 80% 29.95 in 10.0 mi NE 12.7 mph - N/A   Overcast
10:53 AM 50.0 °F - 44.1 °F 80% 29.95 in 10.0 mi NE 12.7 mph - N/A   Overcast
11:53 AM 50.0 °F - 44.1 °F 80% 29.94 in 10.0 mi ENE 12.7 mph - N/A   Overcast
12:53 PM 48.9 °F - 44.1 °F 83% 29.93 in 10.0 mi NE 13.8 mph - N/A   Overcast
1:53 PM 48.0 °F - 44.1 °F 86% 29.91 in 10.0 mi NNE 13.8 mph - N/A   Overcast
2:03 PM 48.2 °F - 44.6 °F 87% 29.89 in 10.0 mi NNE 12.7 mph - N/A   Overcast
2:53 PM 46.9 °F - 45.0 °F 93% 29.92 in 3.0 mi NE 15.0 mph - N/A   Overcast
3:53 PM 46.9 °F - 45.0 °F 93% 29.93 in 9.0 mi NNE 13.8 mph - N/A   Overcast
4:40 PM 46.4 °F 40.7 °F 46.4 °F 100% 29.91 in 2.5 mi NE 12.7 mph - 0.00 in Rain Light Rain
4:53 PM 46.9 °F - 46.0 °F 97% 29.93 in 3.0 mi NE 12.7 mph - 0.00 in Rain Light Rain
5:01 PM 46.4 °F 39.8 °F 46.4 °F 100% 29.90 in 4.0 mi NE 16.1 mph 21.9 mph 0.00 in   Overcast
5:09 PM 46.4 °F 40.4 °F 46.4 °F 100% 29.91 in 3.0 mi NE 13.8 mph - 0.00 in   Overcast
5:53 PM 46.9 °F - 45.0 °F 93% 29.94 in 4.0 mi NE 17.3 mph - 0.00 in   Overcast
6:19 PM 46.4 °F 39.8 °F 44.6 °F 93% 29.91 in 2.5 mi NNE 16.1 mph - 0.00 in Rain Light Rain
6:26 PM 46.4 °F 39.5 °F 44.6 °F 93% 29.91 in 5.0 mi NE 17.3 mph 23.0 mph 0.00 in Rain Light Rain
6:53 PM 46.0 °F 39.6 °F 45.0 °F 96% 29.95 in 4.0 mi NE 15.0 mph 24.2 mph 0.00 in Rain Light Rain
7:08 PM 46.4 °F 39.8 °F 44.6 °F 93% 29.92 in 2.5 mi NE 16.1 mph 24.2 mph 0.00 in Rain Light Rain
7:53 PM 45.0 °F 37.4 °F 44.1 °F 97% 29.95 in 2.5 mi NE 18.4 mph 26.5 mph 0.04 in Rain Light Rain
8:14 PM 44.6 °F 37.2 °F 44.6 °F 100% 29.92 in 3.0 mi NNE 17.3 mph 24.2 mph 0.00 in Rain Light Rain
8:53 PM 44.1 °F 36.5 °F 43.0 °F 96% 29.94 in 4.0 mi NE 17.3 mph 25.3 mph 0.01 in Rain Light Rain
9:48 PM 42.8 °F 35.4 °F 42.8 °F 100% 29.92 in 2.5 mi NNE 15.0 mph - 0.02 in Rain Light Rain
10:35 PM 42.8 °F 35.4 °F 42.8 °F 100% 29.94 in 1.8 mi NNE 15.0 mph 21.9 mph 0.06 in Rain Rain
10:44 PM 42.8 °F 36.6 °F 42.8 °F 100% 29.96 in 2.5 mi NNE 11.5 mph - 0.06 in Rain Light Rain
10:47 PM 42.8 °F 36.6 °F 42.8 °F 100% 29.96 in 3.0 mi North 11.5 mph - 0.06 in Rain Light Rain
10:53 PM 43.0 °F 35.7 °F 42.1 °F 97% 29.99 in 3.0 mi NNE 15.0 mph - 0.08 in Rain Rain
10:59 PM 42.8 °F 34.8 °F 42.8 °F 100% 29.95 in 2.5 mi NNE 17.3 mph - 0.01 in Rain Rain
11:31 PM 42.8 °F 35.1 °F 42.8 °F 100% 29.96 in 3.0 mi NNE 16.1 mph 25.3 mph 0.05 in Rain Light Rain
11:49 PM 42.8 °F 34.3 °F 41.0 °F 93% 29.95 in 2.5 mi NNE 19.6 mph 26.5 mph 0.08 in Rain Rain
11:53 PM 42.1 °F 33.3 °F 41.0 °F 96% 29.99 in 2.5 mi NNE 19.6 mph 26.5 mph 0.08 in Rain Rain